Flag for Germany Weather past 2 weeks in Neuburg an der Donau, Bavaria, Germany

Now
34 °F

Scattered clouds.


Feels Like: 26 °F
Forecast: 32 / 38 °F
Wind: 10 mph from West

Location: Neuburg / Donau

Current Time: Jan 27, 2015 at 10:21:39 AM

Latest Report: Jan 27, 2015 at 9:20 AM


Visibility: N/A

Pressure: 30.09 "Hg

Humidity: 93%

Dew point: 32 °F

Location of Neuburg an der DonauLocation

Historic Weather in Neuburg an der Donau — Graph

°F

Neuburg an der Donau temperature yesterday

Maximum temperature yesterday: 37 °F (at 1:20 PM)
Minimum temperature yesterday: 30 °F (at 8:20 PM)
Average temperature yesterday: 33 °F

Past Weeks' High & Low Weather Summary

 TemperatureHumidityPressure
High48 °F (Jan 13, 3:20 PM)100% (Jan 13, 4:20 AM)30.36 "Hg (Jan 13, 4:20 AM)
Low27 °F (Jan 13, 6:20 AM)49% (Jan 13, 9:20 PM)29.68 "Hg (Jan 16, 5:20 PM)
Average34 °F90%30.00 "Hg
* Reported Jan 12 8:20 AM — Jan 27 8:49 AM, Neuburg an der Donau, Weather by CustomWeather, © 2014

Note: Actual official high and low records may vary slightly from our data, if they occured in-between our weather recording intervals... More about our weather records

Advertising

Neuburg an der Donau weather history for previous 24 hours

 ConditionsComfort  
Time TempWeatherWind HumidityBarometerVisibility
8:49 AM
Jan 27
34 °FPartly sunny.7 mph93%30.09 "Hg5 mi
8:20 AM34 °FLight snow. Fog.13 mph93%30.09 "Hg2 mi
8:01 AM34 °FPartly sunny.10 mph93%30.09 "HgN/A
7:20 AM34 °FLight rain. Partly cloudy.10 mph93%30.09 "Hg4 mi
6:20 AM34 °FPartly cloudy.10 mph93%30.07 "HgN/A
5:20 AM36 °FChilly.16 mph87%30.07 "HgN/A
4:20 AM34 °FChilly.12 mph93%30.04 "HgN/A
3:20 AM34 °FChilly.13 mph100%30.04 "HgN/A
2:20 AM32 °FChilly.14 mph100%30.01 "HgN/A
1:20 AM32 °FChilly.15 mph100%30.01 "HgN/A
12:20 AM32 °FChilly.12 mph100%30.01 "HgN/A
11:20 PM
Jan 26
32 °FChilly.10 mph100%30.04 "HgN/A
10:20 PM32 °FChilly.6 mph93%30.04 "HgN/A
9:20 PM32 °FChilly.7 mph93%30.07 "HgN/A
8:20 PM30 °FChilly.6 mph100%30.09 "HgN/A
7:20 PM32 °FChilly.7 mph93%30.12 "HgN/A
6:20 PM32 °FChilly.8 mph87%30.12 "HgN/A
5:20 PM34 °FPartly cloudy.10 mph75%30.15 "HgN/A
4:20 PM36 °FSnow flurries. Broken clouds.8 mph75%30.15 "HgN/A
3:20 PM37 °FBroken clouds.8 mph65%30.15 "HgN/A
2:20 PM37 °FScattered clouds.12 mph70%30.18 "HgN/A
1:20 PM37 °FScattered clouds.12 mph70%30.21 "HgN/A
12:20 PM36 °FPassing clouds.10 mph81%30.24 "HgN/A
11:20 AM34 °FBroken clouds.10 mph87%30.27 "HgN/A
10:45 AM34 °FBroken clouds.8 mph87%30.27 "HgN/A
10:20 AM34 °FBroken clouds.8 mph87%30.27 "HgN/A
Weather by CustomWeather, © 2014

See weather overviewHow to use our weather pages